Date,TemperatureHighF,TemperatureAvgF,TemperatureLowF,DewpointHighF,DewpointAvgF,DewpointLowF,HumidityHigh,HumidityAvg,HumidityLow,PressureMaxIn,PressureMinIn,WindSpeedMaxMPH,WindSpeedAvgMPH,GustSpeedMaxMPH,PrecipitationSumIn
2012-1-1,50.6,39.3,31.2,45.7,35.1,26.4,98,85,62,30.12,29.71,12,3,27,0.03
2012-1-2,33.2,28.1,22.5,28.2,20.5,14.5,91,74,51,30.00,29.87,13,6,25,0.00
2012-1-3,22.6,18.8,12.3,19.8,13.9,6.7,92,81,65,30.32,30.00,9,5,18,0.00
2012-1-4,35.6,24.6,12.1,25.2,13.6,5.5,83,66,32,30.32,30.00,8,3,13,0.04
2012-1-5,41.0,35.3,32.1,27.2,25.4,22.6,78,67,53,30.08,29.93,8,4,14,0.02
2012-1-6,58.9,47.3,36.0,35.7,29.9,23.5,61,52,36,29.95,29.82,8,2,13,0.00
2012-1-7,56.5,48.8,33.3,44.9,34.4,25.2,77,58,42,30.09,29.78,9,4,15,0.00
2012-1-8,43.4,33.6,27.8,31.6,27.5,24.1,92,79,58,30.34,30.09,7,2,12,0.00
2012-1-9,37.4,31.7,27.4,30.4,26.0,22.7,90,80,67,30.34,30.05,4,1,10,0.00
2012-1-10,48.2,39.2,30.5,33.7,30.5,26.8,89,72,55,30.07,29.99,8,3,14,0.00
2012-1-11,37.8,31.7,25.4,37.0,30.4,23.9,98,95,86,30.04,29.58,3,0,10,1.27
2012-1-12,38.0,37.7,37.1,37.5,37.2,36.6,98,98,98,29.58,29.55,3,1,10,0.01
2012-1-13,23.2,21.4,20.2,17.1,15.0,13.7,82,76,71,30.00,29.71,13,9,21,0.01
2012-1-14,27.3,22.2,18.5,18.7,15.6,13.8,87,76,65,30.21,30.00,9,4,21,0.00
2012-1-15,27.3,20.7,15.1,17.1,14.4,11.9,88,77,61,30.59,30.21,6,2,21,0.00
2012-1-16,32.2,22.6,11.4,30.7,18.4,9.3,94,84,66,30.58,30.14,4,0,21,0.00
2012-1-17,58.1,47.8,32.2,51.4,43.6,30.4,98,86,67,30.14,29.64,12,4,24,0.47
2012-1-18,40.1,29.1,18.3,31.0,20.0,12.5,89,69,55,30.18,29.83,10,5,24,0.00
2012-1-19,39.9,27.3,15.4,29.4,20.0,13.2,94,76,45,30.19,29.91,12,2,22,0.00
2012-1-20,30.7,24.2,17.6,28.9,17.7,11.9,93,76,63,30.29,30.00,6,2,21,0.03
2012-1-21,33.7,28.5,23.1,32.2,26.7,20.9,96,93,88,30.33,29.94,6,1,21,0.01
2012-1-22,30.2,26.9,22.9,29.5,25.5,21.4,97,94,89,30.43,30.29,3,0,21,0.00
2012-1-23,47.9,36.3,30.2,44.2,35.3,29.5,99,96,86,30.30,29.78,7,1,21,0.31
2012-1-24,49.9,43.8,36.6,40.7,35.2,32.1,85,72,57,30.26,29.92,10,5,21,0.22
2012-1-25,48.9,40.1,33.5,36.1,32.3,28.9,84,74,56,30.36,30.16,9,3,21,0.00
2012-1-26,40.3,37.5,36.3,36.4,35.2,32.8,98,92,76,30.17,29.69,4,2,21,0.44
2012-1-27,46.4,38.9,36.1,46.1,35.4,30.3,99,87,77,30.02,29.49,13,6,21,0.11
2012-1-28,46.0,36.5,31.2,38.0,27.3,14.7,89,71,46,30.20,29.92,11,4,21,0.00
2012-1-29,43.3,34.1,27.6,31.2,18.8,13.9,88,55,34,30.25,30.01,13,4,23,0.00
2012-1-30,43.3,33.2,23.6,26.9,20.6,16.3,79,61,38,30.38,30.20,11,3,12,0.00
2012-1-31,61.9,52.5,37.4,33.2,28.0,23.9,65,39,25,30.22,30.01,9,4,21,0.00
2012-2-1,56.6,50.6,40.2,47.5,41.3,29.4,96,73,36,30.05,29.98,9,3,15,0.00
2012-2-2,49.1,40.8,35.5,43.9,35.2,27.8,98,82,62,30.38,29.99,11,4,18,0.01
2012-2-3,52.4,38.5,28.2,33.2,28.8,25.1,90,70,41,30.53,30.35,6,2,11,0.00
2012-2-4,39.9,32.7,27.5,34.2,29.8,25.0,98,89,73,30.36,30.12,2,0,5,0.03
2012-2-5,39.1,32.7,26.8,34.7,31.3,25.6,98,95,82,30.26,30.09,4,0,6,0.23
2012-2-6,47.6,34.9,25.3,31.4,26.9,23.0,96,75,44,30.27,30.09,4,1,8,0.22
2012-2-7,50.3,39.3,29.6,32.8,29.3,26.2,87,68,43,30.25,30.12,7,3,13,0.01
2012-2-8,34.8,31.0,27.5,33.2,28.4,23.7,95,90,78,30.26,30.13,8,2,16,0.11
2012-2-9,38.2,31.1,26.0,24.4,22.1,19.5,81,70,49,30.31,30.22,8,4,14,0.01
2012-2-10,37.5,32.4,28.0,30.9,25.8,21.7,96,77,62,30.24,29.91,6,2,11,0.00
2012-2-11,35.9,26.2,15.1,30.5,21.5,9.3,95,82,66,30.07,29.76,15,5,25,0.07
2012-2-12,22.2,18.1,13.9,14.5,11.1,7.8,80,74,65,30.23,30.07,11,6,20,0.00
2012-2-13,39.6,29.4,20.7,22.0,18.5,14.1,81,65,46,30.28,30.11,9,4,15,0.01
2012-2-14,46.2,36.9,30.6,35.2,28.9,20.7,93,73,52,30.12,29.93,3,1,13,0.00
2012-2-15,38.1,36.3,35.2,35.3,32.5,30.1,93,86,76,30.30,30.05,8,4,13,0.01
2012-2-18,52.3,52.3,52.3,28.1,28.1,28.1,39,39,39,29.92,29.92,10,10,15,0.00
2012-2-19,40.0,36.1,32.3,26.7,24.1,22.8,73,62,54,30.04,29.94,5,1,8,0.00
2012-2-20,47.8,34.7,25.9,25.0,22.6,17.5,81,63,31,30.33,30.04,6,3,10,0.00
2012-2-23,49.5,47.3,44.6,40.6,36.8,33.3,85,68,56,29.55,29.51,3,2,9,0.15
2012-2-24,55.4,42.6,34.6,47.4,38.1,26.7,98,86,49,29.71,29.37,15,5,26,0.28
2012-2-25,35.0,31.1,28.4,27.5,21.6,18.0,89,68,57,30.33,29.70,13,8,24,0.00
2012-2-26,45.0,33.1,22.5,23.0,19.8,16.3,78,60,34,30.52,30.33,7,2,12,0.00
2012-2-27,28.0,28.0,27.9,22.0,21.7,21.6,78,77,77,30.37,30.37,0,0,2,0.00
2012-3-1,54.9,47.4,32.5,48.2,36.6,28.8,89,67,53,29.96,29.61,14,6,32,0.01
2012-3-2,45.4,38.2,27.8,43.8,35.0,26.3,97,88,69,30.00,29.59,6,1,13,0.66
2012-3-3,50.4,44.5,35.4,46.9,32.4,21.3,99,66,34,29.77,29.52,13,4,24,0.01
2012-3-4,36.9,32.6,28.9,26.9,23.4,18.9,88,69,51,29.92,29.72,9,5,19,0.00
2012-3-5,29.3,28.3,26.8,26.1,22.0,18.3,89,77,69,30.49,29.91,7,3,13,0.00
2012-3-6,48.3,33.4,20.3,27.2,21.8,15.9,85,64,39,30.66,30.49,5,1,11,0.00
2012-3-7,67.9,48.5,26.4,40.2,31.4,23.8,91,58,26,30.53,30.27,9,2,15,0.00
2012-3-8,57.9,44.8,40.7,46.0,38.4,36.5,86,79,65,30.29,30.09,6,1,10,0.00
2012-3-15,75.1,52.6,44.7,53.3,44.1,40.6,86,75,44,30.21,30.16,7,1,9,0.00
2012-3-19,72.1,63.5,55.4,60.6,56.6,52.8,92,79,63,30.15,30.07,3,1,6,0.09
2012-3-20,71.5,61.8,53.6,61.5,55.8,51.9,96,82,61,30.24,30.14,6,1,11,0.00
2012-3-21,63.5,58.6,53.6,59.5,56.2,52.2,97,92,85,30.29,30.18,3,0,7,0.00
2012-3-22,76.0,61.5,58.0,63.2,58.1,56.6,96,89,61,30.23,30.11,7,1,10,0.00
2012-3-26,52.1,46.0,35.3,40.5,28.1,15.5,77,50,34,30.25,29.91,10,7,17,0.00
2012-3-27,37.8,30.3,25.3,19.1,16.1,12.2,71,56,36,30.38,30.24,7,1,10,0.00
2012-3-30,54.1,43.4,35.4,45.1,37.8,31.8,92,81,62,30.09,29.76,8,2,12,0.09
2012-3-31,57.2,52.0,46.2,54.6,47.7,40.7,98,85,71,29.89,29.73,9,3,13,0.45
2012-4-1,71.1,53.1,45.2,49.2,41.6,38.4,83,68,32,29.88,29.62,7,2,11,0.00
2012-4-9,52.1,47.8,44.6,37.9,30.2,21.7,75,52,36,29.98,29.89,10,6,22,0.00
2012-5-26,85.6,67.8,62.2,73.6,64.7,61.4,98,91,64,30.13,30.09,2,0,4,0.01
2012-5-29,78.7,77.6,76.6,68.4,67.3,66.2,73,71,69,29.74,29.72,6,3,13,0.01
2012-6-12,67.2,63.7,62.3,62.9,61.9,60.9,97,94,83,29.90,29.86,13,4,32,0.87
2012-6-29,86.3,85.8,85.2,73.5,72.9,72.2,68,66,63,29.72,29.64,1,0,4,0.00
2012-7-19,86.2,74.6,70.2,71.1,69.4,68.5,95,85,60,29.86,29.82,11,3,32,0.12
2012-10-29,36.0,36.0,35.9,35.2,35.1,34.8,97,97,96,29.09,29.07,17,12,17,1.98
2012-10-30,36.2,35.3,34.2,33.3,32.7,32.1,95,90,87,29.43,29.03,21,3,21,0.68
2012-11-6,44.6,37.5,29.6,32.7,28.2,25.3,85,69,56,30.09,30.03,7,1,12,0.00
2012-11-7,43.0,34.4,28.3,31.9,27.8,25.1,90,77,60,30.04,29.94,5,1,8,0.00
2012-11-8,44.0,35.0,32.1,31.1,24.9,21.1,80,67,45,30.16,30.01,23,4,23,0.00
2012-11-9,53.8,42.7,33.5,38.5,33.9,29.1,85,72,52,30.27,30.15,18,2,18,0.00
2012-11-10,65.8,47.6,33.7,40.8,35.3,30.8,90,66,34,30.36,30.23,13,1,13,0.00
2012-11-11,66.5,50.0,34.4,43.8,38.2,32.2,93,67,37,30.45,30.31,13,1,13,0.00
2012-11-12,68.5,58.4,43.6,55.3,49.4,37.5,86,72,60,30.33,30.05,32,3,32,0.03
2012-11-13,43.4,37.1,31.6,38.4,28.6,23.3,91,72,59,30.53,30.22,13,4,16,0.05
2012-11-14,40.4,33.7,28.1,29.4,25.9,23.0,88,73,61,30.59,30.45,10,1,10,0.00
2012-11-15,45.3,34.3,25.9,33.3,28.4,24.1,95,80,59,30.45,30.32,11,1,11,0.00
2012-11-16,54.4,33.7,27.5,36.5,28.0,25.7,95,82,35,30.50,30.35,9,0,9,0.00
2012-11-17,50.3,36.3,25.0,35.2,27.4,23.3,95,73,40,30.64,30.50,12,1,12,0.00
2012-11-18,30.3,29.2,28.5,26.1,25.8,25.4,90,87,84,30.62,30.60,2,0,2,0.00
2012-11-20,48.2,43.2,35.7,39.9,37.5,33.2,91,80,71,30.18,30.11,10,1,10,0.01
2012-11-21,54.3,40.0,28.7,39.0,32.9,27.5,96,78,50,30.28,30.17,11,1,11,0.00
2012-11-22,57.3,40.5,28.1,36.8,30.4,25.7,92,70,40,30.31,30.13,12,1,12,0.00
2012-11-23,58.4,36.8,30.4,47.1,31.8,23.5,92,82,62,30.13,29.83,25,1,25,0.02
2012-11-24,33.2,30.9,29.4,24.5,22.6,19.9,79,71,62,30.10,29.95,24,6,24,0.00
2012-11-25,42.2,31.2,28.3,24.0,21.3,19.7,74,67,42,30.10,29.91,14,4,17,0.00
2012-11-26,51.2,41.2,31.8,32.7,27.6,22.8,77,59,39,30.20,30.00,10,2,12,0.00
2012-11-27,40.2,36.4,33.6,37.6,32.9,27.5,97,87,66,30.30,30.17,9,1,9,0.27
2012-11-28,40.0,35.2,31.6,28.3,25.9,23.9,78,69,55,30.40,30.26,21,4,21,0.01
2012-11-29,46.1,34.5,27.4,30.0,24.9,22.5,85,69,42,30.47,30.32,10,1,10,0.00
2012-11-30,52.7,36.8,26.7,37.0,28.8,22.2,88,74,48,30.37,30.27,12,1,12,0.00
2012-12-1,51.4,39.1,28.0,36.3,32.0,25.7,92,77,55,30.44,30.32,11,1,11,0.00
2012-12-2,56.4,40.6,32.8,49.6,36.2,31.0,94,85,64,30.37,30.13,8,0,8,0.00
2012-12-3,51.1,51.1,51.0,50.3,50.3,50.2,97,97,97,30.20,30.20,1,0,2,0.01
2012-12-4,70.4,56.4,44.5,56.0,50.7,44.2,100,84,50,30.22,29.98,11,1,14,0.03
2012-12-5,55.7,42.9,29.5,51.0,35.4,24.8,86,75,55,30.32,30.01,19,4,19,0.00
2012-12-6,41.4,31.2,21.5,29.9,25.3,19.3,93,79,62,30.38,30.18,12,1,12,0.00
2012-12-7,39.2,36.0,31.5,38.1,33.7,27.1,98,91,78,30.20,29.98,8,0,8,0.09
2012-12-8,58.3,48.1,37.4,54.5,46.7,36.9,99,95,84,30.05,29.89,7,0,7,0.10
2012-12-9,50.9,46.3,43.8,49.8,45.5,43.4,99,97,91,30.15,29.90,8,0,8,0.58
2012-12-10,57.9,48.0,37.7,54.6,46.3,35.0,100,94,83,29.90,29.57,17,2,17,0.19
2012-12-11,38.6,35.6,30.8,35.3,31.6,27.1,93,85,76,30.25,29.75,17,3,17,0.00
2012-12-12,39.7,31.0,25.2,30.3,26.8,23.5,94,85,64,30.48,30.25,8,0,9,0.00
2012-12-13,40.2,26.1,19.6,31.5,23.1,18.2,97,89,63,30.52,30.36,10,0,10,0.01
2012-12-14,51.2,36.3,23.3,32.5,25.3,21.5,94,68,34,30.37,30.26,16,2,17,0.00
2012-12-15,47.1,37.5,28.1,35.6,28.5,23.9,86,71,48,30.30,30.07,8,0,8,0.02
2012-12-17,48.1,43.3,39.7,45.8,42.1,38.0,99,96,90,29.84,29.55,10,1,10,0.31
2012-12-18,47.7,43.1,37.9,45.5,40.0,32.0,99,89,78,29.83,29.54,21,3,21,0.00
2012-12-19,44.5,41.1,35.8,38.9,36.2,32.4,92,83,74,30.18,29.79,21,3,21,0.00
2012-12-20,41.2,36.8,33.3,37.7,35.0,32.0,98,93,79,30.18,29.43,15,2,15,1.00
2012-12-21,38.7,31.9,28.8,38.4,28.2,25.4,99,86,77,29.64,29.39,31,8,31,0.05
2012-12-22,32.7,29.9,26.8,28.0,24.3,21.0,92,80,71,30.09,29.63,34,10,34,0.01
2012-12-23,46.4,34.4,24.6,29.8,24.9,19.9,86,69,50,30.08,29.90,16,2,16,0.00
2012-12-24,34.6,30.1,26.5,30.9,28.0,24.5,98,92,77,30.04,29.90,8,0,8,0.00
2012-12-25,39.4,35.9,30.9,35.7,31.5,29.3,98,84,69,30.24,29.92,15,2,15,0.22
2012-12-26,33.4,28.3,25.3,30.3,26.7,23.8,97,93,85,30.23,29.60,14,2,14,0.00
2012-12-27,33.6,30.2,28.5,32.5,27.3,24.8,98,89,84,30.10,29.58,26,7,26,0.00
2012-12-28,37.7,31.1,27.9,30.2,26.0,24.2,88,81,67,30.18,30.00,17,2,17,0.10
2012-12-29,36.6,31.1,27.6,33.6,28.7,24.6,97,91,80,30.01,29.62,26,3,26,0.10
2012-12-30,31.0,28.4,25.0,28.0,24.0,20.1,93,84,76,30.36,29.90,29,8,29,0.00
2012-12-31,39.1,31.2,22.9,30.6,24.2,18.6,86,76,52,30.34,30.02,21,4,21,0.07
2013-1-1,37.5,34.0,30.2,31.1,29.4,25.7,90,83,77,30.04,29.94,15,5,17,0.10